Weather History for Easton, MD

Change the Weather History Date:

Saturday, August 23, 2014

  Actual Average Record
Temperature  
Mean Temperature 70 °F -  
Max Temperature 77 °F 86 °F 96 °F (1968)
Min Temperature 64 °F 65 °F 52 °F (1952)
Cooling Degree Days 6    
Growing Degree Days 20 (Base 50)    
Moisture  
Dew Point 68 °F    
Average Humidity 98    
Maximum Humidity 100    
Minimum Humidity 74    
Precipitation  
Precipitation 0.00 in - - ()
Sea Level Pressure  
Sea Level Pressure 30.06 in    
Wind  
Wind Speed 1 mph (East)    
Max Wind Speed 8 mph    
Max Gust Speed -    
Visibility 10 miles    
Events Rain    
Averages and records for this station are not official NWS values.
T = Trace of Precipitation, MM = Missing Value Source: NWS Daily Summary

Daily Weather History Graph

Daily Weather History Graph

Search for Another Location

Airport:

Trip Planner

Search our weather history database for the weather conditions in past years. The results will help you decide how hot, cold, wet, or windy it might be!

Date:

Astronomy

Aug. 23, 2014 Rise Set
Actual Time 6:25 AM EDT 7:47 PM EDT
Civil Twilight 5:57 AM EDT 8:15 PM EDT
Nautical Twilight 5:23 AM EDT 8:48 PM EDT
Astronomical Twilight 4:48 AM EDT 9:23 PM EDT
Moon 4:39 AM EDT (8/23) 6:31 PM EDT (8/23)
Length of Visible Light 14h 18m
Length of Day
13h 22m
Waning Crescent, 3% of the Moon is Illuminated
Aug 23
Waning Crescent
Aug 25
New
Sep 2
First Quarter
Sep 8
Full
Sep 15
Last Quarter

Hourly Weather History & Observations

Time (EDT) Temp. Dew Point Humidity Pressure Visibility Wind Dir Wind Speed Gust Speed Precip Events Conditions
12:12 AM 70.9 °F 69.8 °F 96% 30.05 in 10.0 mi Calm Calm - N/A   Clear
12:32 AM 70.2 °F 70.2 °F 100% 30.05 in 10.0 mi Calm Calm - N/A   Clear
12:52 AM 69.8 °F 69.8 °F 100% 30.05 in 10.0 mi Calm Calm - N/A   Scattered Clouds
1:12 AM 69.1 °F 69.1 °F 100% 30.05 in 10.0 mi Calm Calm - N/A   Scattered Clouds
1:33 AM 68.9 °F 68.9 °F 100% 30.04 in 10.0 mi Calm Calm - N/A   Clear
1:53 AM 68.7 °F 68.7 °F 100% 30.04 in 10.0 mi Calm Calm - N/A   Clear
2:13 AM 68.5 °F 68.5 °F 100% 30.04 in 10.0 mi Calm Calm - N/A   Clear
2:33 AM 67.6 °F 67.6 °F 100% 30.03 in 10.0 mi Calm Calm - N/A   Clear
2:53 AM 68.0 °F 68.0 °F 100% 30.03 in 10.0 mi Calm Calm - N/A   Clear
3:13 AM 67.3 °F 67.3 °F 100% 30.03 in 10.0 mi Calm Calm - N/A   Clear
3:33 AM 67.1 °F 67.1 °F 100% 30.03 in 10.0 mi Calm Calm - N/A   Clear
3:53 AM 66.6 °F 66.6 °F 100% 30.03 in 10.0 mi Calm Calm - N/A   Clear
4:13 AM 66.2 °F 66.2 °F 100% 30.03 in 10.0 mi Calm Calm - N/A   Clear
4:33 AM 66.0 °F 66.0 °F 100% 30.03 in 10.0 mi Calm Calm - N/A   Clear
4:53 AM 65.7 °F 65.7 °F 100% 30.03 in 10.0 mi Calm Calm - N/A   Clear
5:13 AM 65.7 °F 65.7 °F 100% 30.03 in 10.0 mi Calm Calm - N/A   Scattered Clouds
5:33 AM 65.3 °F 65.3 °F 100% 30.03 in 10.0 mi Calm Calm - N/A   Clear
5:50 AM 64.4 °F 64.4 °F 100% 30.03 in 10.0 mi Calm Calm - N/A   Scattered Clouds
5:53 AM 65.3 °F 65.3 °F 100% 30.03 in 10.0 mi Calm Calm - N/A   Clear
6:13 AM 65.3 °F 65.3 °F 100% 30.04 in 10.0 mi Calm Calm - N/A   Clear
6:26 AM 65.5 °F 65.5 °F 100% 30.04 in 10.0 mi East 5.8 mph - N/A   Clear
6:48 AM 66.2 °F 66.2 °F 100% 30.04 in 10.0 mi East 8.1 mph - N/A   Scattered Clouds
7:48 AM 68.0 °F 68.0 °F 100% 30.05 in 10.0 mi ENE 4.6 mph - N/A   Scattered Clouds
8:45 AM 73.4 °F 71.6 °F 94% 30.05 in 10.0 mi East 3.5 mph - N/A   Scattered Clouds
9:50 AM 75.2 °F 71.6 °F 89% 30.06 in 10.0 mi Calm Calm - N/A   Scattered Clouds
10:50 AM 75.2 °F 71.6 °F 89% 30.07 in 10.0 mi Calm Calm - N/A   Overcast
11:50 AM 75.2 °F 68.0 °F 78% 30.07 in 10.0 mi Calm Calm - N/A   Mostly Cloudy
12:50 PM 77.0 °F 68.0 °F 74% 30.06 in 10.0 mi East 3.5 mph - N/A   Overcast
1:50 PM 73.4 °F 73.4 °F 100% 30.07 in 5.0 mi Calm Calm - N/A Rain Light Rain
2:50 PM 73.4 °F 73.4 °F 100% 30.07 in 6.0 mi Calm Calm - N/A Rain Light Rain
3:50 PM 71.6 °F 71.6 °F 100% 30.07 in 10.0 mi East 5.8 mph - N/A Rain Light Rain
4:50 PM 71.6 °F 71.6 °F 100% 30.08 in 7.0 mi East 5.8 mph - N/A Rain Light Rain
5:50 PM 71.6 °F 71.6 °F 100% 30.08 in 7.0 mi East 4.6 mph - N/A Rain Light Rain
6:50 PM 69.8 °F 69.8 °F 100% 30.08 in 10.0 mi Calm Calm - N/A Rain Light Rain
8:50 PM 68.0 °F 68.0 °F 100% 30.09 in 10.0 mi Calm Calm - N/A   Overcast
10:35 PM 65.8 °F 65.8 °F 100% 30.12 in 10.0 mi Calm Calm - N/A   Clear
10:55 PM 65.7 °F 65.7 °F 100% 30.12 in 10.0 mi Calm Calm - N/A   Clear
11:15 PM 65.3 °F 65.3 °F 100% 30.13 in 10.0 mi Calm Calm - N/A   Clear
11:35 PM 65.5 °F 65.5 °F 100% 30.13 in 10.0 mi Calm Calm - N/A   Scattered Clouds
11:55 PM 65.3 °F 65.3 °F 100% 30.13 in 10.0 mi Calm Calm - N/A   Mostly Cloudy